Regional Weather Roundup
Issued by NWS

Home | Current Version | Previous Version | Text Only | Print | Product List | Glossary Off
Versions: 1 2 3 4 5 6 7 8 9 10 11 12 13 14 15 16 17 18 19 20 21 22 23 24 25 26 27 28 29 30 31 32 33 34 35 36 37 38 39 40 41 42 43 44 45 46 47 48 49 50

000
ASUS43 KDTX 192310
RWRMI
MICHIGAN HOURLY REGIONAL WEATHER ROUNDUP
NATIONAL WEATHER SERVICE DETROIT/PONTIAC MI
600 PM EST THU JAN 19 2017

NOTE: "FAIR" INDICATES FEW OR NO CLOUDS BELOW 12,000 FEET WITH NO
SIGNIFICANT WEATHER AND/OR OBSTRUCTION TO VISIBILITY.

MIZ047>049-052>055-059>063-066>070-074>076-081>083-200000-
SOUTHEAST LOWER MICHIGAN

CITY           SKY/WX    TMP DP  RH WIND       PRES   REMARKS
ADRIAN         CLOUDY    35  34  96 S3        29.96S
ALMA           CLOUDY    32  31  97 CALM      29.93F FOG
ANN ARBOR      CLOUDY    34  33  96 CALM      29.95F
BAD AXE        CLOUDY    32  32  99 S5        29.98S FOG     WCI  28
CARO           CLOUDY    33  32  94 CALM      29.95F
DETROIT CITY   CLOUDY    34  32  92 S6        29.98F WCI  29
DETROIT        CLOUDY    36  32  85 SE5       29.98F FOG     WCI  32
FLINT          PTCLDY    36  31  82 E3        29.94F
GROSSE ILE     CLOUDY    35  33  92 CALM      29.97S FOG
HILLSDALE      CLOUDY    32  32 100 SE6       29.92R FOG     WCI  26
HOWELL         CLOUDY    36  32  86 SE7       29.93F WCI  30

CITY           SKY/WX    TMP DP  RH WIND       PRES   REMARKS
JACKSON        CLOUDY    36  31  82 SE7       29.92F WCI  30
LAMBERTVILLE   CLOUDY    38  34  85 CALM      29.96F
LANSING        CLOUDY    37  31  78 E5        29.92F WCI  33
LAPEER         FAIR      33  31  93 E3        29.94F
MASON          CLOUDY    38  33  84 SE3       29.92S
MONROE         CLOUDY    36  34  94 SE3       29.96S FOG
MT. CLEMENS    CLOUDY    32  32  99 S8        29.97S FOG     WCI  25
PONTIAC        CLOUDY    37  31  78 S3        29.94S
PORT HOPE        N/A     34  32  92 S3        29.98R
PORT HURON     CLOUDY    32  32 100 SE3       29.99S FOG
TRI CITIES     CLOUDY    34  33  96 N3        29.95F FOG
MIDLAND        FAIR      33  32  94 CALM      29.94F FOG
TROY           PTCLDY    36  32  84 SE5       29.98F FOG     WCI  32
SAGINAW HB     CLOUDY    34  32  93 CALM      29.95F FOG
$$
MIZ043>046-050>051-056>058-064>065-071>073-077>080-200000-
SOUTHWEST LOWER MICHIGAN

CITY           SKY/WX    TMP DP  RH WIND       PRES   REMARKS
BATTLE CREEK   CLOUDY    39  35  86 SE6       29.91S WCI  35
BENTON HARBOR  CLOUDY    40  35  83 E5        29.89S
BIG RAPIDS     CLOUDY    37  32  83 CALM      29.90F
COLDWATER      CLOUDY    36  35  96 SE6       29.91F WCI  31
FREMONT        FAIR      35  33  93 CALM      29.89F FOG
HOLLAND        MOCLDY    36  33  89 E6        29.90F WCI  31
GRAND RAPIDS   CLOUDY    37  32  82 E6        29.90F WCI  32
IONIA          FAIR      36  33  91 E3        29.90F
KALAMAZOO      CLOUDY    39  33  79 S3        29.91S
LUDINGTON      CLOUDY    34  33  97 CALM      29.90F FOG
MARSHALL       CLOUDY    38  35  87 SE5       29.91S WCI  35
MOUNT PLEASANT CLOUDY    34  32  93 CALM      29.93F FOG
MUSKEGON       CLOUDY    37  33  85 CALM      29.91F
SOUTH HAVEN    CLOUDY    39  36  89 SE5       29.91R FOG
$$
MIZ016>042-200000-
NORTHERN LOWER MICHIGAN

CITY           SKY/WX    TMP DP  RH WIND       PRES   REMARKS
ALPENA         CLOUDY    35  31  85 SE3       29.97R
BEAVER ISLAND  CLOUDY    36  35  99 S7        29.92S FOG     WCI  30
BELLAIRE       CLOUDY    35  33  92 CALM      29.95R
CADILLAC       CLOUDY    35  33  92 CALM      29.90F
CHARLEVOIX     CLOUDY    35  35  99 CALM      29.97R FOG
FRANKFORT      CLOUDY    36  34  92 CALM      29.91F
GAYLORD        CLOUDY    36  31  82 S6        29.92R HAZE    WCI  31
GRAYLING       CLOUDY    34  33  96 S3        29.94S FOG
HARBOR SPRINGS CLOUDY    35  33  92 CALM      29.94S FOG
HOUGHTON LAKE  PTCLDY    33  31  92 CALM      29.93F FOG
MANISTEE       MOCLDY    35  31  85 E3        29.91F FOG
OSCODA         CLOUDY    36  34  93 CALM      29.97R FOG
PELLSTON       CLOUDY    35  32  88 CALM      29.95R FOG
ROGERS CITY    CLOUDY    36  32  87 CALM      29.97R FOG
TRAVERSE CITY  CLOUDY    37  33  85 CALM      29.93R
$$
MIZ007>008-015-200000-
EASTERN UPPER MICHIGAN

CITY           SKY/WX    TMP DP  RH WIND       PRES   REMARKS
KINROSS        CLOUDY    34  33  96 S8        29.93R FOG     WCI  27
MACKINAC ISLAN CLOUDY    33  33 100 S5        29.94S FOG     WCI  29
NEWBERRY       FOG       33  32  96 S9        29.89R VSB 1/4 WCI  25
S. S. MARIE    CLOUDY    36  32  85 SE8       29.93R FOG     WCI  30
MUNISING         N/A     33  32  96 S12G20    29.85R WCI  24
$$
MIZ004>006-011>014-085-200000-
CENTRAL UPPER MICHIGAN

CITY           SKY/WX    TMP DP  RH WIND       PRES   REMARKS
MANISTIQUE     FOG       32  32  99 SW12G20   29.89S VSB 1/2 WCI  23
ESCANABA       FOG       32  32 100 S6        29.89S VSB 1/4 WCI  26
SAWYER-GWINN   FOG       32  32 100 S13       29.83R VSB 1/4 WCI  22
$$
MIZ001>003-009>011-084-200000-
WESTERN UPPER MICHIGAN

CITY           SKY/WX    TMP DP  RH WIND       PRES   REMARKS
IRON MOUNTAIN  CLEAR     34  30  85 SE6       29.83R FOG     WCI  29
HOUGHTON       CLEAR     35  31  85 E5        29.76S WCI  31
COPPER HARBOR    N/A     32  32 100 CALM      29.79F
IRONWOOD       CLEAR     47  35  63 SW5       29.77R
$$

ABBREVIATIONS USED IN REMARKS
   TC - TEMPERATURE IN CELSIUS
  WCI - WIND CHILL INDEX
   HX - HEAT INDEX
  VSB - VISIBILITY





USA.gov is the U.S. government's official web portal to all federal, state and local government web resources and services.